Flight Track Log - Related Links

Times and Time Zones

All times are in EDT time to prevent confusion due to time zone crossing. See the ASQ5738 flight status page for this flight to view local times or setup timezone preferences in your user account.

Time Position Orientation Groundspeed Altitude Reporting Facility
EDT Latitude Longitude Course Direction KTS MPH feet Rate Location/Type
Sat 10:16:14 AM 42.7653 -73.8089 194° South 154 177 1,200  Level Boston Center
Sat 10:17:27 AM 42.8083 -73.8608 318° Northwest 207 238 3,800 2,652 Climbing Boston Center
Sat 10:18:32 AM 42.8450 -73.9381 303° West 236 272 7,300 3,024 Climbing Boston Center
Sat 10:19:00 AM 42.4468 -74.1132 196° South  Level Estimated
Sat 10:19:32 AM 42.8772 -74.0097 302° West 231 266 10,100  Level Boston Center
Sat 10:20:00 AM 42.3711 -74.1906 198° South  Level Estimated
Sat 10:20:32 AM 42.8969 -74.0839 290° West 231 266 12,200  Level Boston Center
Sat 10:21:00 AM 42.2953 -74.2677 194° South  Level Estimated
Sat 10:21:32 AM 42.8644 -74.1822 246° West 242 278 14,800  Level Boston Center
Sat 10:22:32 AM 42.8294 -74.2775 243° Southwest 272 313 16,800 1,250 Climbing Boston Center
Sat 10:23:32 AM 42.7542 -74.2922 188° South 274 315 17,300 700 Climbing Boston Center
Sat 10:24:32 AM 42.6633 -74.2442 159° South 314 361 18,200 1,100 Climbing Boston Center
Sat 10:25:32 AM 42.5722 -74.1994 160° South 334 384 19,500 1,182 Climbing Boston Center
Sat 10:26:44 AM 42.4708 -74.1542 162° South 364 419 20,800 1,273 Climbing Boston Center
Sat 10:27:44 AM 42.3486 -74.0947 160° South 381 438 22,300 1,300 Climbing Boston Center
Sat 10:28:44 AM 42.2431 -74.0469 161° South 392 451 23,400 1,150 Climbing Boston Center
Sat 10:29:44 AM 42.1322 -74.0806 193° South 392 451 24,600 1,400 Climbing Boston Center
Sat 10:30:44 AM 42.0214 -74.0972 186° South 403 464 26,200 1,000 Climbing Boston Center
Sat 10:31:44 AM 41.9047 -74.0969 180° South 408 470 26,600 433 Climbing Boston Center
Sat 10:33:44 AM 41.6936 -74.0964 180° South 436 502 27,500 472 Climbing New York Center
Sat 10:34:42 AM 41.5500 -74.0947 180° South 442 509 28,000 254 Climbing New York Center
Sat 10:35:42 AM 41.4231 -74.0939 180° South 442 509 28,000  Level New York Center
Sat 10:36:43 AM 41.2961 -74.0931 180° South 447 514 28,000  Level New York Center
Sat 10:37:43 AM 41.1686 -74.1061 184° South 460 529 28,000 -51 Level New York Center
Sat 10:38:41 AM 41.0867 -74.2094 224° Southwest 435 501 27,900  Descending New York Center
Sat 10:39:41 AM 41.0197 -74.3544 239° Southwest 435 501 28,000 50 Climbing New York Center
Sat 10:40:42 AM 40.9531 -74.4883 237° Southwest 447 514 28,000  Level New York Center
Sat 10:41:42 AM 40.8925 -74.6278 240° Southwest 447 514 28,000  Level New York Center
Sat 10:42:42 AM 40.8481 -74.7706 248° West 437 503 28,000  Level New York Center
Sat 10:43:43 AM 40.8033 -74.9214 249° West 437 503 28,000  Level New York Center
Sat 10:44:43 AM 40.7606 -75.0669 249° West 437 503 28,000  Level New York Center
Sat 10:45:41 AM 40.7133 -75.2172 248° West 437 503 28,000  Level New York Center
Sat 10:46:42 AM 40.6661 -75.3647 247° West 437 503 28,000 -1,041 Level New York Center
Sat 10:47:42 AM 40.6064 -75.5028 240° Southwest 442 509 25,900 -2,016 Descending New York Center
Sat 10:48:44 AM 40.5489 -75.6381 241° Southwest 437 503 23,900 -2,067 Descending New York Center
Sat 10:49:41 AM 40.4953 -75.7708 242° Southwest 425 489 21,800 -1,983 Descending New York Center
Sat 10:50:42 AM 40.4358 -75.8919 237° Southwest 408 470 20,000 -893 Descending New York Center
Sat 10:51:42 AM 40.3411 -76.0103 224° Southwest 413 475 20,000  Level New York Center
Sat 10:52:43 AM 40.2569 -76.1181 224° Southwest 424 488 20,000 -400 Level New York Center
Sat 10:53:42 AM 40.1750 -76.2258 225° Southwest 429 494 19,200 -850 Descending New York Center
Sat 10:54:43 AM 40.1078 -76.3264 229° Southwest 424 488 18,300 -857 Descending New York Center
Sat 10:55:41 AM 40.0428 -76.4625 238° Southwest 411 473 17,500 -880 Descending New York Center
Sat 10:57:00 AM 39.9673 -76.5880 232° Southwest  Level FlightAware Approximate
Sat 10:57:47 AM 39.9333 -76.7000 232° Southwest 337 388 15,600  Level Potomac TRACON
Sat 10:58:47 AM 39.8833 -76.8000 237° Southwest 331 381 15,000 -450 Descending Potomac TRACON
Sat 10:59:47 AM 39.8333 -76.9000 237° Southwest 330 380 14,700 -500 Descending Potomac TRACON
Sat 11:00:47 AM 39.7833 -77.0000 237° Southwest 323 372 14,000 -600 Descending Potomac TRACON
Sat 11:01:47 AM 39.7500 -77.1000 247° West 324 373 13,500 -992 Descending Potomac TRACON
Sat 11:02:48 AM 39.7000 -77.2000 237° Southwest 320 368 12,000 -1,488 Descending Potomac TRACON
Sat 11:03:48 AM 39.6500 -77.3000 237° Southwest 311 358 10,500 -1,250 Descending Potomac TRACON
Sat 11:04:48 AM 39.6000 -77.3833 232° Southwest 293 337 9,500 -994 Descending Potomac TRACON
Sat 11:06:00 AM 39.4750 -77.3583 171° South  Level FlightAware Approximate
Sat 11:06:49 AM 39.4667 -77.4500 171° South 281 323 7,500  Level Potomac TRACON
Sat 11:07:49 AM 39.4000 -77.4500 180° South 270 311 6,600 -950 Descending Potomac TRACON
Sat 11:08:49 AM 39.3167 -77.4500 180° South 253 291 5,600 -800 Descending Potomac TRACON
Sat 11:09:49 AM 39.2667 -77.4500 180° South 215 247 5,000 -250 Descending Potomac TRACON
Sat 11:10:49 AM 39.2000 -77.4500 180° South 197 227 5,100 100 Climbing Potomac TRACON

Login

Don't have an account? Register now (free) for customized features, flight alerts, and more!